DO2DV-13 Weather Reports


time (UTC)temp
C
wind
direction
speed
KPH
gust
KPH
rain 1hr
cm
rain 24hr
cm
rain mn
cm
humidity
%
barometer
mb
20260506204042 11 175 0.0 1.6 0.00 0.18 0.18 99 1009.2
20260506203105 11 165 0.0 3.2 0.00 0.18 0.18 99 1009.1
20260506202025 11 198 1.6 4.8 0.00 0.18 0.18 99 1009.1
20260506201050 11 222 0.0 3.2 0.00 0.18 0.18 99 1008.9
20260506200153 11 0.0 0.0 0.03 0.18 0.18 99 1008.8
20260506195034 11 121 0.0 3.2 0.10 0.18 0.18 99 1008.8
20260506194058 12 222 0.0 1.6 0.18 0.18 0.18 99 1008.7
20260506193121 12 165 1.6 1.6 0.18 0.18 0.18 99 1008.4
20260506192042 12 88 0.0 1.6 0.18 0.18 0.18 99 1008.3
20260506191105 12 0.0 0.0 0.18 0.18 0.18 98 1008.1
20260506190045 12 242 3.2 8.0 0.15 0.18 0.15 96 1008.1
20260506185110 12 273 6.4 14.5 0.08 0.10 0.08 93 1008.0
20260506184114 13 231 4.8 9.7 0.00 0.05 0.00 86 1007.8
20260506183113 13 211 4.8 8.0 0.00 0.08 0.00 82 1007.6
20260506182118 13 163 1.6 3.2 0.00 0.10 0.00 82 1007.4
20260506181141 13 192 3.2 3.2 0.00 0.15 0.00 81 1007.4
20260506180026 14 180 4.8 8.0 0.00 0.15 0.00 81 1007.3
20260506175050 14 221 1.6 9.7 0.00 0.15 0.00 79 1007.3
20260506174114 15 225 3.2 11.3 0.00 0.15 0.00 78 1007.2
20260506173034 15 258 4.8 11.3 0.00 0.18 0.00 76 1007.2
20260506172057 15 216 3.2 8.0 0.00 0.18 0.00 74 1006.9
20260506171105 15 225 6.4 11.3 0.00 0.20 0.00 73 1007.0
20260506170026 15 225 9.7 17.7 0.00 0.20 0.00 72 1007.0
20260506165110 15 206 4.8 9.7 0.00 0.20 0.00 73 1006.9
20260506164154 15 221 4.8 9.7 0.00 0.20 0.00 73 1006.9
20260506163034 16 227 4.8 9.7 0.00 0.20 0.00 71 1006.9
20260506162057 16 230 6.4 11.3 0.00 0.20 0.00 71 1007.0
20260506161122 16 239 6.4 14.5 0.00 0.20 0.00 70 1007.0
20260506155107 17 272 8.0 16.1 0.00 0.20 0.00 67 1007.0
20260506154026 18 253 6.4 12.9 0.00 0.20 0.00 62 1006.8
20260506153110 17 248 6.4 14.5 0.00 0.20 0.00 65 1006.8
20260506152114 17 224 8.0 16.1 0.00 0.20 0.00 65 1006.8
20260506151033 17 219 8.0 14.5 0.00 0.20 0.00 63 1006.8
20260506150058 18 233 8.0 12.9 0.00 0.20 0.00 61 1006.7
20260506145121 17 217 4.8 11.3 0.00 0.20 0.00 63 1006.6
20260506144042 17 245 4.8 11.3 0.00 0.20 0.00 65 1006.5
20260506143126 17 208 4.8 12.9 0.00 0.20 0.00 63 1006.6
20260506142045 17 223 6.4 12.9 0.00 0.20 0.00 61 1006.6
20260506141050 17 251 4.8 11.3 0.00 0.20 0.00 63 1006.5
20260506140114 17 217 6.4 14.5 0.00 0.20 0.00 63 1006.5
20260506135035 16 262 6.4 12.9 0.00 0.20 0.00 65 1006.4
20260506134058 17 190 4.8 8.0 0.00 0.20 0.00 66 1006.6
20260506133123 17 234 4.8 8.0 0.00 0.20 0.00 65 1006.5
20260506132042 17 232 4.8 8.0 0.00 0.20 0.00 65 1006.6
20260506131146 17 205 6.4 14.5 0.00 0.20 0.00 65 1006.6
20260506130026 17 213 6.4 12.9 0.00 0.20 0.00 67 1006.8
20260506125050 16 212 4.8 9.7 0.00 0.23 0.00 69 1006.8
20260506124134 16 257 4.8 9.7 0.00 0.23 0.00 70 1006.7
20260506123055 16 230 6.4 12.9 0.00 0.23 0.00 71 1006.8
20260506122042 15 248 4.8 8.0 0.00 0.23 0.00 74 1006.9
20260506121106 15 255 6.4 11.3 0.00 0.23 0.00 75 1006.8
20260506120026 15 249 3.2 11.3 0.00 0.23 0.00 75 1007.0
20260506115050 15 258 4.8 11.3 0.00 0.23 0.00 75 1006.9
20260506114114 15 241 6.4 9.7 0.00 0.23 0.00 77 1006.9
20260506113054 15 218 4.8 9.7 0.00 0.23 0.00 74 1007.0
20260506112058 15 214 3.2 8.0 0.00 0.23 0.00 75 1007.2
20260506111122 15 239 4.8 12.9 0.00 0.23 0.00 77 1007.3
20260506110042 15 211 4.8 8.0 0.00 0.23 0.00 75 1007.2
20260506105107 15 204 6.4 12.9 0.00 0.23 0.00 76 1007.3
20260506104026 14 208 4.8 11.3 0.00 0.23 0.00 77 1007.2
20260506103051 14 193 4.8 9.7 0.00 0.23 0.00 78 1007.1
20260506102114 15 210 4.8 9.7 0.00 0.23 0.00 78 1007.2
20260506101035 13 218 4.8 8.0 0.00 0.23 0.00 81 1007.1
20260506100059 15 229 6.4 12.9 0.00 0.23 0.00 80 1007.1
20260506095122 13 236 4.8 11.3 0.00 0.23 0.00 84 1007.2
20260506094043 13 196 3.2 9.7 0.00 0.23 0.00 83 1007.1
20260506093106 13 215 4.8 9.7 0.00 0.23 0.00 85 1007.1
20260506092026 13 165 4.8 11.3 0.00 0.23 0.00 84 1007.3
20260506091131 13 185 4.8 9.7 0.00 0.23 0.00 86 1007.1
20260506090115 13 188 3.2 9.7 0.00 0.23 0.00 86 1007.1
20260506085034 13 211 6.4 16.1 0.00 0.23 0.00 87 1007.0
20260506084059 13 161 4.8 9.7 0.00 0.23 0.00 87 1006.8
20260506083122 13 189 3.2 9.7 0.00 0.23 0.00 87 1006.5
20260506082043 13 196 6.4 12.9 0.00 0.23 0.00 86 1006.6
20260506081107 13 218 4.8 11.3 0.00 0.23 0.00 85 1006.5
20260506073034 11 188 1.6 8.0 0.00 0.23 0.00 94 1006.8
20260506072059 11 226 3.2 4.8 0.00 0.23 0.00 94 1007.0
20260506071123 11 180 3.2 8.0 0.00 0.23 0.00 95 1007.0
20260506062115 11 88 0.0 1.6 0.00 0.23 0.00 99 1006.5
20260506061034 11 191 0.0 4.8 0.00 0.23 0.00 99 1006.6
20260506051050 8 0.0 0.0 0.00 0.23 0.00 99 1006.6
20260506050115 7 0.0 0.0 0.00 0.23 0.00 99 1006.5
20260506045034 7 0.0 0.0 0.00 0.23 0.00 99 1006.4
20260506044118 8 0.0 0.0 0.00 0.23 0.00 99 1006.4
20260506043123 7 0.0 0.0 0.00 0.23 0.00 99 1006.5
20260506042043 7 0.0 0.0 0.00 0.23 0.00 99 1006.5
20260506041106 8 0.0 0.0 0.00 0.23 0.00 99 1006.6
20260506040026 8 0.0 0.0 0.00 0.23 0.00 99 1006.6
20260506035051 8 0.0 0.0 0.00 0.23 0.00 99 1006.7
20260506034115 8 0.0 0.0 0.00 0.23 0.00 99 1006.9
20260506033034 8 0.0 0.0 0.00 0.23 0.00 99 1006.9
20260506032058 8 0.0 0.0 0.00 0.23 0.00 99 1007.0
20260506031143 9 0.0 0.0 0.00 0.23 0.00 99 1006.9
20260506025106 9 0.0 0.0 0.00 0.23 0.00 99 1007.2
20260506024047 9 0.0 0.0 0.00 0.23 0.00 99 1007.1
20260506023051 8 0.0 0.0 0.00 0.23 0.00 99 1007.1
20260506022115 8 94 0.0 1.6 0.00 0.23 0.00 99 1007.2
20260506021035 8 0.0 0.0 0.00 0.23 0.00 99 1007.2
20260506020059 8 0.0 0.0 0.00 0.23 0.00 99 1007.0
20260506015222 9 0.0 0.0 0.00 0.23 0.00 99 1007.1
20260506014043 9 0.0 0.0 0.00 0.23 0.00 99 1007.0
20260506013106 10 0.0 0.0 0.00 0.23 0.00 99 1007.2
20260506012047 10 0.0 0.0 0.00 0.23 0.00 99 1007.4
20260506011051 10 0.0 0.0 0.00 0.23 0.00 99 1007.4
20260506010115 10 0.0 0.0 0.00 0.23 0.00 99 1007.5
20260506005055 10 0.0 0.0 0.00 0.23 0.00 99 1007.5
20260506004058 10 0.0 0.0 0.00 0.23 0.00 99 1007.4
20260506003123 10 0.0 0.0 0.00 0.23 0.00 99 1007.6
20260506002042 11 0.0 0.0 0.00 0.23 0.00 99 1007.7
20260506001127 11 0.0 0.0 0.00 0.23 0.00 99 1007.8
20260506000027 11 0.0 0.0 0.00 0.23 0.00 99 1007.8
20260505235051 11 23 0.0 3.2 0.00 0.23 0.00 99 1007.8
20260505234115 11 0.0 0.0 0.00 0.23 0.00 99 1007.8
20260505233035 11 0.0 0.0 0.00 0.23 0.00 99 1007.9
20260505232059 12 3 1.6 3.2 0.00 0.23 0.00 99 1007.9
20260505231123 11 0.0 0.0 0.00 0.23 0.00 99 1008.2
20260505225108 12 27 0.0 1.6 0.00 0.23 0.00 99 1008.2
20260505224047 12 0.0 0.0 0.00 0.23 0.00 99 1008.1
20260505223050 12 0.0 0.0 0.00 0.23 0.00 99 1008.1
20260505222115 12 0.0 0.0 0.00 0.23 0.00 99 1008.1
20260505221035 12 0.0 0.0 0.00 0.23 0.00 99 1008.0
20260505220059 12 0.0 0.0 0.00 0.23 0.00 99 1008.1
20260505215123 12 3 1.6 3.2 0.00 0.23 0.23 99 1008.2
20260505214043 12 0.0 0.0 0.00 0.23 0.23 99 1008.1
20260505213107 12 0.0 0.0 0.00 0.23 0.23 99 1008.0
20260505212027 12 0.0 0.0 0.00 0.23 0.23 99 1008.1
20260505211051 12 351 0.0 1.6 0.00 0.23 0.23 99 1008.0
20260505210135 12 6 1.6 3.2 0.00 0.23 0.23 99 1008.2
20260505205036 12 0.0 0.0 0.00 0.23 0.23 99 1008.1
20260505204059 12 204 1.6 4.8 0.00 0.23 0.23 99 1008.2